Regional Weather Roundup
Issued by NWS

Home | Current Version | Previous Version | Text Only | Print | Product List | Glossary Off
Versions: 1 2 3 4 5 6 7 8 9 10 11 12 13 14 15 16 17 18 19 20 21 22 23 24 25 26 27 28 29 30 31 32 33 34 35 36 37 38 39 40 41 42 43 44 45 46 47 48 49 50

000
ASUS43 KFSD 261202
RWRSD

WEATHER ROUNDUP FOR SOUTH DAKOTA
NATIONAL WEATHER SERVICE SIOUX FALLS SD
700 AM CDT TUE JUL 26 2016

NOTE: "FAIR" INDICATES FEW OR NO CLOUDS BELOW 12,000 FEET WITH NO
SIGNIFICANT WEATHER AND/OR OBSTRUCTIONS TO VISIBILITY.


SDZ001>005-009-010-012>017-261300-
NORTHWEST AND NORTH CENTRAL SOUTH DAKOTA

CITY           SKY/WX    TMP DP  RH WIND       PRES   REMARKS
BUFFALO          N/A     68  61  78 W30G38    30.06R
FAITH            N/A     68  61  78 S12       29.96S
MOBRIDGE       CLEAR     73  63  70 SE5       29.92S
$$

SDZ012>016-024>037-041>051-057-063-072>074-261300-
SOUTHWEST AND SOUTH CENTRAL SOUTH DAKOTA

CITY           SKY/WX    TMP DP  RH WIND       PRES   REMARKS
RAPID CTY ARPT CLOUDY    65  61  87 S8        29.98F
PIERRE         CLEAR     72  63  73 S9        29.95S
CUSTER         CLOUDY    58  54  86 N3        30.14F
ELLSWORTH AFB  MOCLDY    71  62  75 S12       29.96F
PHILIP         CLOUDY    71  65  81 S5        29.96S
PINE RIDGE     CLEAR     68  64  87 S18G25    30.00F
WINNER         FAIR      73  60  63 S17       30.01S
$$

SDZ004>011-016>023-039-040-261300-
NORTHEAST SOUTH DAKOTA

CITY           SKY/WX    TMP DP  RH WIND       PRES   REMARKS
ABERDEEN       MOCLDY    66  60  81 SE6       30.01S
WATERTOWN      CLEAR     68  63  84 S10       30.03S
BROOKINGS      CLEAR     66  62  87 S5        30.06R
$$

SDZ017-020-022-023-036>040-048>070-261300-
SOUTHEAST SOUTH DAKOTA

CITY           SKY/WX    TMP DP  RH WIND       PRES   REMARKS
SIOUX FALLS    PTCLDY    70  63  78 S7        30.06S
HURON          CLEAR     66  61  84 S9        30.01R
CHAMBERLAIN    CLEAR     72  63  74 S6        30.00S
MITCHELL       CLEAR     65  62  90 S8        30.03R
YANKTON        CLEAR     64  61  88 CALM      30.05R
$$

ABBREVIATIONS USED IN REMARKS
   TC - TEMPERATURE IN CELSIUS
  WCI - WIND CHILL INDEX
   HX - HEAT INDEX
  VSB - VISIBILITY





USA.gov is the U.S. government's official web portal to all federal, state and local government web resources and services.